Regional Weather Roundup
Issued by NWS

Home | Current Version | Previous Version | Text Only | Print | Product List | Glossary Off
Versions: 1 2 3 4 5 6 7 8 9 10 11 12 13 14 15 16 17 18 19 20 21 22 23 24 25 26 27 28 29 30 31 32 33 34 35 36 37 38 39 40 41 42 43 44 45 46 47 48 49 50

000
ASUS43 KMKX 221920
RWRWI

WISCONSIN REGIONAL WEATHER ROUNDUP
NATIONAL WEATHER SERVICE MILWAUKEE/SULLIVAN WI
200 PM CDT SUN APR 22 2018

NOTE: "FAIR" INDICATES FEW OR NO CLOUDS BELOW 12,000 FEET WITH NO
SIGNIFICANT WEATHER AND/OR OBSTRUCTIONS TO VISIBILITY.

WIZ001-002-006>008-014>016-023>028-222000-
NORTHWEST WISCONSIN

CITY           SKY/WX    TMP DP  RH WIND       PRES   REMARKS
SUPERIOR ARPT  FAIR      60  31  32 E6        30.30F
ASHLAND        FAIR      60  25  26 SW9       30.31F
HAYWARD        FAIR      59  29  31 S7        30.32F
SIREN          FAIR      60  28  29 S5        30.31F
CUMBERLAND     FAIR      52  30  43 CALM      30.33F
RICE LAKE      FAIR      58  30  34 CALM      30.33F
CHETEK         FAIR      58  32  36 E7G17     30.32F
LADYSMITH      FAIR      60  31  33 S3        30.34F
EAU CLAIRE     FAIR      62  31  31 SE6       30.31F
MENOMONIE      FAIR      62  28  27 E3        30.31F
NEW RICHMOND   FAIR      60  31  33 CALM      30.32F
OSCEOLA        FAIR      59  33  37 CALM      30.34F
$$

WIZ003>005-009-010-017-018-222000-
NORTH CENTRAL WISCONSIN

CITY           SKY/WX    TMP DP  RH WIND       PRES   REMARKS
MANITOWISH WTR FAIR      55  22  28 SE6       30.32F
ARBOR VITAE    FAIR      57  19  23 S10       30.33S
WOODRUFF       FAIR      57  19  23 S10       30.33S
RHINELANDER    FAIR      58  22  24 SW8       30.33F
EAGLE RIVER    FAIR      58  11  15 SW8       30.31F
LAND O LAKES   FAIR      60   8  12 S12G17    30.33F
PHILLIPS       FAIR      57  28  32 CALM      30.32F
TOMAHAWK       FAIR      57  18  21 CALM      30.34F
MEDFORD        FAIR      54  29  39 S5        30.34F
MERRILL          N/A     59  25  27 SW7       30.34F
$$

WIZ029-030-035-036-043>047-222000-
CENTRAL WISCONSIN

CITY           SKY/WX    TMP DP  RH WIND       PRES   REMARKS
WAUSAU         FAIR      58  26  29 SE10      30.32F
MOSINEE        MOSUNNY   57  27  30 S3        30.35F
MARSHFIELD     FAIR      55  28  35 SE8       30.33F
STEVENS POINT  FAIR      53  26  34 E3        30.35F
WAUPACA        FAIR      59  11  15 E6        30.36F
WAUTOMA        FAIR      57  19  22 VRB6      30.35F
WISC RAPIDS    FAIR      57  27  31 E9        30.35F
CAMP DOUGLAS   PTSUNNY   59  28  31 NE10      30.33F
$$

WIZ011>013-019>022-031-037>040-048>050-222000-
NORTHEAST WISCONSIN

CITY           SKY/WX    TMP DP  RH WIND       PRES   REMARKS
ANTIGO         FAIR      55  30  39 S6        30.35F
SHAWANO        FAIR      58  20  22 E7        30.36F
OCONTO         FAIR      55  19  24 SE8       30.38F
STURGEON BAY   FAIR      55  19  24 S7        30.39F
GREEN BAY      FAIR      55  26  32 S7        30.37F
MANITOWOC      FAIR      53  25  33 E7        30.39F
APPLETON       MOSUNNY   55  12  18 S3        30.35F
CLINTONVILLE   FAIR      56  18  23 SW6       30.36F
OSHKOSH        FAIR      56  25  30 NE5       30.36F
$$

WIZ032>034-041-042-053>061-222000-
SOUTHWEST WISCONSIN

CITY           SKY/WX    TMP DP  RH WIND       PRES   REMARKS
LA CROSSE      FAIR      62  29  28 SE9G20    30.32F
SPARTA         FAIR      59  28  30 E9        30.34S
VIROQUA        FAIR      59  33  37 E12       30.32S
BOSCOBEL       FAIR      66  25  21 VRB7      30.30F
PRAIRIE DU CHI FAIR      63  18  17 E9        30.29F
PLATTEVILLE    FAIR      62  31  31 NE15      30.29F
$$

WIZ056-057-062-063-064-067-068-222000-
SOUTH CENTRAL WISCONSIN

CITY           SKY/WX    TMP DP  RH WIND       PRES   REMARKS
REEDSBURG      FAIR      59  22  23 E8        30.32F
BARABOO/DELLS  FAIR      58  17  19 CALM      30.33S
LONE ROCK      FAIR      62  24  23 E7        30.31F
MINERAL POINT  FAIR      63  27  25 NE12      30.29F
MADISON        PTSUNNY   61  30  31 E12G18    30.32F
MIDDLETON      FAIR      61  27  27 SE7       30.33F
WATERTOWN      FAIR      58  30  34 E8        30.33F
MONROE         FAIR      61  30  31 NE9G17    30.29F
JANESVILLE     MOSUNNY   63  25  23 E14G20    30.31F
$$

WIZ051-052-058>065-066-070>072-222000-
SOUTHEAST WISCONSIN

CITY           SKY/WX    TMP DP  RH WIND       PRES   REMARKS
MILWAUKEE      PTSUNNY   53  27  36 NE9       30.37F
WAUKESHA       SUNNY     54  27  35 E10       30.35F
MILWAUKEE/TIMM SUNNY     63  19  19 E7        30.37S
RACINE         FAIR      56  25  30 NE10      30.36F
BURLINGTON     FAIR      60  26  27 E10G16    30.33F
KENOSHA        FAIR      57  27  31 E13       30.34F
FOND DU LAC    FAIR      57  27  31 NE8       30.35F
SHEBOYGAN      FAIR      54  31  41 NE9       30.37F
WEST BEND      FAIR      59  23  25 E9        30.35F
JUNEAU         FAIR      55  30  37 E6        30.35F
$$

LSZ147-162-222000-
LAKE SUPERIOR

STATION/POSITION TIME  TEMP    WIND        PRES    WAVE
                       AIR SEA DIR/SP/G            HT/PER
                 (UTC) (F)     (DEG/KT/KT) (MB)    (FT/S)
DEVILS ISLAND    1900   37      80/  6/  6 1027.7F
SAXON HARBOR     1840   39     360/  2/  3 1026.4F
$$

LMZ867-665-643>646-222000-
LAKE MICHIGAN

STATION/POSITION TIME  TEMP    WIND        PRES    WAVE
                       AIR SEA DIR/SP/G            HT/PER
                 (UTC) (F)     (DEG/KT/KT) (MB)    (FT/S)
NORTHPORT PIER   1840   42                 1028.8F
KEWAUNEE LAKESHO 1900   47     100/  2/  4 1028.3
SHEBOYGAN LAKESH 1900   39      20/  6/  6 1029.1F
PORT WASHINGTON  1830   45      40/  6/  7 1029.5F
MILWAUKEE LAKESH 1900   40      40/  9/  9   N/A
KENOSHA   LAKESH 1900   40                 1027.4
$$

TC  - TEMPERATURE IN CELSIUS
VSB - VISIBILITY IN STATUTE MILES
WCI - WIND CHILL INDEX
HX  - HEAT INDEX





USA.gov is the U.S. government's official web portal to all federal, state and local government web resources and services.